SCP
0 0 0 0 0 0 0 -0 -0 0 0 0 0 0 0 0 -0 0 -0 -0 -0 -0 -0 -1 -0 -0 0 0 0 0 0 0
0 0 0 0 0 0 0 0 0 0 0 0 0 0 0 0 0 0 0 0 -0 -0 -0 -0 -0 -0 0 0 0 0 0 0
0 0 0 0 0 0 0 0 0 0 0 0 0 0 0 0 0 0 0 0 -0 0 0 -0 -0 -0 0 0 0 0 0 0
0 0 0 0 0 0 0 0 0 0 0 0 0 0 0 0 -0 0 0 0 -0 -0 0 0 0 0 0 0 0 0 0 0
0 0 0 0 0 0 0 0 0 0 0 0 0 0 0 0 0 1 1 0 0 -0 -0 0 0 0 0 0 0 0 0 0
0 0 0 0 0 0 0 0 0 0 0 0 0 0 0 0 1 1 2 1 0 1 1 1 1 1 1 0 0 0 1 1
0 0 0 0 0 0 0 0 0 0 0 0 0 0 0 0 0 0 0 1 1 1 1 1 1 1 1 1 0 0 1 1
0 0 0 0 0 0 0 0 0 0 0 0 0 0 0 0 0 0 0 0 0 0 1 0 0 1 1 2 1 1 1 1
0 0 0 0 0 0 0 0 0 0 0 0 0 0 0 0 0 0 0 0 0 0 0 0 0 0 1 1 2 1 1 1
0 0 0 0 0 0 0 0 0 0 0 0 0 0 0 0 0 0 0 0 0 0 0 0 0 0 0 1 1 1 1 1
0 0 -0 0 0 0 0 0 0 0 0 0 0 0 0 0 0 0 0 0 0 0 0 0 0 0 0 0 0 1 1 1
0 0 0 0 0 0 0 0 0 0 0 0 0 0 0 0 0 0 0 0 -0 -0 -0 -0 -0 0 0 0 0 0 1 0
0 0 0 0 0 0 0 0 0 0 0 0 0 0 0 0 0 0 0 0 -0 -0 -0 -0 -0 -0 -0 -0 0 0 0 0
0 0 0 0 0 0 0 0 0 0 0 0 0 0 0 0 0 0 0 0 0 0 0 0 0 -0 -0 -0 0 0 0 0
0 0 0 0 0 0 0 0 0 0 0 0 0 0 0 0 0 0 0 0 0 0 0 -0 0 0 0 -0 -0 0 0 0
0 0 0 0 0 0 0 0 0 0 0 0 0 0 0 0 0 0 0 0 0 0 0 0 0 0 0 0 0 -0 -0 0
0 0 0 0 0 0 0 0 0 0 0 0 0 0 0 0 0 0 0 0 0 0 0 0 0 0 0 -0 0 0 -0 -0
0 0 0 0 0 0 0 0 0 0 0 0 0 0 0 0 0 0 0 0 0 0 0 0 0 0 0 0 -0 -0 0 0
0 0 0 0 -0 -0 0 0 0 0 0 0 0 0 0 0 0 0 0 0 0 0 0 0 0 0 0 0 0 0 -0 -0
0 0 0 0 0 0 0 0 0 0 0 0 0 0 0 0 0 0 0 0 0 0 0 0 0 0 0 0 0 0 0 0
Wind_Speed_500mb
8 7 8 9 5 11 17 45 38 14 25 14 8 19 12 28 13 16 19 13 17 25 23 23 26 24 23 22 18 17 25 31
8 5 5 10 8 5 17 50 40 41 15 34 21 10 17 29 18 11 10 12 16 16 20 20 22 24 24 22 19 15 16 25
8 8 0 4 16 27 12 21 43 41 18 32 26 11 19 35 22 2 7 10 15 14 14 18 18 21 22 22 22 19 16 18
2 6 1 6 26 49 25 25 42 36 26 18 26 24 25 25 28 8 10 11 14 17 12 6 16 18 22 24 24 23 20 18
6 8 5 3 14 18 18 23 14 22 12 19 30 26 34 32 30 23 9 11 12 13 12 6 3 21 24 26 27 27 25 22
2 9 7 6 19 24 17 8 15 10 9 9 26 24 37 38 46 32 17 13 12 11 15 16 16 17 28 28 29 29 30 30
2 7 4 5 11 18 11 15 26 30 46 31 21 21 25 41 44 43 37 15 7 8 9 9 11 12 20 27 27 30 33 36
7 12 5 7 15 10 6 19 25 37 32 15 18 24 15 36 39 36 34 36 32 17 11 11 18 17 9 14 24 30 34 38
6 23 14 7 9 3 6 0 13 31 27 18 20 15 5 11 28 28 28 24 20 21 18 15 16 19 18 17 21 25 29 37
19 21 12 6 10 2 3 9 28 24 21 22 14 11 14 10 3 12 13 16 13 7 12 12 14 14 14 25 25 30 33 38
14 24 21 19 12 10 15 6 28 25 16 15 20 23 21 17 16 18 18 9 14 17 20 26 26 24 21 16 22 28 34 39
6 6 8 17 8 7 14 11 31 24 22 22 27 22 22 18 13 12 15 23 31 36 36 36 36 37 34 33 27 30 35 42
13 17 10 19 6 14 36 27 31 29 25 38 30 26 20 13 10 11 21 31 35 37 42 46 53 53 53 52 52 47 45 47
16 14 13 21 14 15 17 41 39 34 45 45 36 27 19 16 17 23 27 30 37 41 40 40 43 49 53 51 50 54 50 46
17 12 11 11 13 20 33 33 32 32 53 48 40 28 21 17 16 24 29 31 36 45 49 54 56 54 52 57 56 51 52 50
5 2 6 9 11 14 36 37 29 35 55 53 47 38 28 20 20 26 25 28 34 40 48 56 61 63 63 61 62 68 63 62
8 9 4 13 13 19 39 25 21 26 58 60 50 38 27 20 18 16 18 25 31 39 48 52 53 58 64 68 71 73 74 72
12 6 4 10 21 19 18 20 35 44 67 61 52 47 37 25 14 16 19 23 32 41 49 54 57 51 56 63 67 69 76 82
14 6 7 10 21 12 11 15 32 46 52 64 69 58 40 24 14 9 13 25 38 47 46 51 57 57 61 67 71 77 80 84
8 9 7 9 12 12 16 27 15 38 55 75 64 48 35 27 15 10 19 30 40 45 53 58 61 63 66 64 69 68 71 74
Wind_Direction_500mb
93 111 162 170 215 173 99 144 149 112 68 58 62 65 62 27 93 76 68 100 145 179 178 183 173 166 160 152 146 151 166 169
85 203 243 185 154 159 95 73 109 99 59 65 75 67 48 26 61 75 81 85 109 159 189 190 190 179 171 168 165 162 169 178
84 245 300 10 90 100 86 97 89 92 108 71 80 91 64 39 48 102 142 102 102 108 183 203 206 203 193 184 184 184 183 187
51 255 342 60 93 86 79 93 97 92 84 67 74 96 35 29 38 77 189 142 114 106 97 181 230 234 223 211 199 198 200 201
197 160 40 56 70 79 92 80 46 133 97 82 75 81 35 38 66 68 140 164 136 119 108 79 271 244 241 239 227 210 207 215
243 202 73 6 83 94 72 65 101 88 126 104 79 97 51 60 74 72 91 164 134 91 35 11 348 273 237 230 242 238 222 216
241 91 151 94 98 93 83 97 84 105 104 101 93 106 80 67 66 66 80 94 175 125 35 5 6 343 246 240 241 247 246 236
195 148 123 64 82 120 98 114 104 102 102 95 74 87 74 68 76 78 76 74 79 54 23 347 345 345 360 270 266 268 261 252
174 121 110 68 87 97 132 31 172 129 107 75 81 72 64 53 71 75 75 70 57 59 50 28 2 334 316 285 282 285 276 270
163 143 134 137 135 317 207 252 157 135 111 89 95 136 155 209 222 73 65 62 63 5 315 313 331 343 333 303 297 283 273 276
180 166 162 158 170 209 275 181 148 130 104 117 146 141 147 164 208 250 265 326 340 331 321 315 311 300 301 290 291 286 290 279
273 232 210 159 215 179 230 181 151 150 147 159 158 165 161 166 182 229 268 278 285 296 305 307 302 303 300 300 291 281 277 277
261 241 209 160 297 221 252 195 171 165 169 159 171 180 193 199 232 276 298 295 291 291 293 295 300 301 296 290 290 289 288 287
277 177 222 155 250 253 271 178 181 191 164 163 165 183 189 223 260 287 298 308 314 316 317 311 305 303 305 303 295 289 286 282
308 216 138 157 235 241 172 187 209 201 167 164 164 175 201 230 263 289 302 310 323 328 329 329 327 320 309 306 307 300 294 292
253 50 119 216 250 274 218 217 226 206 172 170 175 184 197 218 258 286 304 321 323 323 323 322 321 321 320 314 308 308 304 298
250 263 223 214 248 255 255 244 228 204 183 173 177 175 186 209 248 277 295 304 313 316 317 316 318 322 319 315 313 309 309 309
292 230 170 289 283 240 216 226 236 229 187 180 170 170 175 179 198 258 295 311 315 314 313 313 311 312 308 308 308 308 305 303
231 319 354 335 287 271 268 247 253 240 218 205 183 172 170 171 196 232 284 302 306 310 310 311 310 304 298 297 296 299 304 306
44 47 233 77 283 273 279 282 254 251 213 190 176 175 171 165 184 253 295 309 311 306 308 312 314 305 303 300 301 303 304 305
Wind_Speed_850mb
8 7 8 9 5 11 17 45 38 14 25 14 8 19 12 28 13 16 19 13 17 25 23 23 26 24 23 22 18 17 25 31
8 5 5 10 8 5 17 50 40 41 15 34 21 10 17 29 18 11 10 12 16 16 20 20 22 24 24 22 19 15 16 25
8 8 0 4 16 27 12 21 43 41 18 32 26 11 19 35 22 2 7 10 15 14 14 18 18 21 22 22 22 19 16 18
2 6 1 6 26 49 25 25 42 36 26 18 26 24 25 25 28 8 10 11 14 17 12 6 16 18 22 24 24 23 20 18
6 8 5 3 14 18 18 23 14 22 12 19 30 26 34 32 30 23 9 11 12 13 12 6 3 21 24 26 27 27 25 22
2 9 7 6 19 24 17 8 15 10 9 9 26 24 37 38 46 32 17 13 12 11 15 16 16 17 28 28 29 29 30 30
2 7 4 5 11 18 11 15 26 30 46 31 21 21 25 41 44 43 37 15 7 8 9 9 11 12 20 27 27 30 33 36
7 12 5 7 15 10 6 19 25 37 32 15 18 24 15 36 39 36 34 36 32 17 11 11 18 17 9 14 24 30 34 38
6 23 14 7 9 3 6 0 13 31 27 18 20 15 5 11 28 28 28 24 20 21 18 15 16 19 18 17 21 25 29 37
19 21 12 6 10 2 3 9 28 24 21 22 14 11 14 10 3 12 13 16 13 7 12 12 14 14 14 25 25 30 33 38
14 24 21 19 12 10 15 6 28 25 16 15 20 23 21 17 16 18 18 9 14 17 20 26 26 24 21 16 22 28 34 39
6 6 8 17 8 7 14 11 31 24 22 22 27 22 22 18 13 12 15 23 31 36 36 36 36 37 34 33 27 30 35 42
13 17 10 19 6 14 36 27 31 29 25 38 30 26 20 13 10 11 21 31 35 37 42 46 53 53 53 52 52 47 45 47
16 14 13 21 14 15 17 41 39 34 45 45 36 27 19 16 17 23 27 30 37 41 40 40 43 49 53 51 50 54 50 46
17 12 11 11 13 20 33 33 32 32 53 48 40 28 21 17 16 24 29 31 36 45 49 54 56 54 52 57 56 51 52 50
5 2 6 9 11 14 36 37 29 35 55 53 47 38 28 20 20 26 25 28 34 40 48 56 61 63 63 61 62 68 63 62
8 9 4 13 13 19 39 25 21 26 58 60 50 38 27 20 18 16 18 25 31 39 48 52 53 58 64 68 71 73 74 72
12 6 4 10 21 19 18 20 35 44 67 61 52 47 37 25 14 16 19 23 32 41 49 54 57 51 56 63 67 69 76 82
14 6 7 10 21 12 11 15 32 46 52 64 69 58 40 24 14 9 13 25 38 47 46 51 57 57 61 67 71 77 80 84
8 9 7 9 12 12 16 27 15 38 55 75 64 48 35 27 15 10 19 30 40 45 53 58 61 63 66 64 69 68 71 74
Wind_Direction_850mb
93 111 162 170 215 173 99 144 149 112 68 58 62 65 62 27 93 76 68 100 145 179 178 183 173 166 160 152 146 151 166 169
85 203 243 185 154 159 95 73 109 99 59 65 75 67 48 26 61 75 81 85 109 159 189 190 190 179 171 168 165 162 169 178
84 245 300 10 90 100 86 97 89 92 108 71 80 91 64 39 48 102 142 102 102 108 183 203 206 203 193 184 184 184 183 187
51 255 342 60 93 86 79 93 97 92 84 67 74 96 35 29 38 77 189 142 114 106 97 181 230 234 223 211 199 198 200 201
197 160 40 56 70 79 92 80 46 133 97 82 75 81 35 38 66 68 140 164 136 119 108 79 271 244 241 239 227 210 207 215
243 202 73 6 83 94 72 65 101 88 126 104 79 97 51 60 74 72 91 164 134 91 35 11 348 273 237 230 242 238 222 216
241 91 151 94 98 93 83 97 84 105 104 101 93 106 80 67 66 66 80 94 175 125 35 5 6 343 246 240 241 247 246 236
195 148 123 64 82 120 98 114 104 102 102 95 74 87 74 68 76 78 76 74 79 54 23 347 345 345 360 270 266 268 261 252
174 121 110 68 87 97 132 31 172 129 107 75 81 72 64 53 71 75 75 70 57 59 50 28 2 334 316 285 282 285 276 270
163 143 134 137 135 317 207 252 157 135 111 89 95 136 155 209 222 73 65 62 63 5 315 313 331 343 333 303 297 283 273 276
180 166 162 158 170 209 275 181 148 130 104 117 146 141 147 164 208 250 265 326 340 331 321 315 311 300 301 290 291 286 290 279
273 232 210 159 215 179 230 181 151 150 147 159 158 165 161 166 182 229 268 278 285 296 305 307 302 303 300 300 291 281 277 277
261 241 209 160 297 221 252 195 171 165 169 159 171 180 193 199 232 276 298 295 291 291 293 295 300 301 296 290 290 289 288 287
277 177 222 155 250 253 271 178 181 191 164 163 165 183 189 223 260 287 298 308 314 316 317 311 305 303 305 303 295 289 286 282
308 216 138 157 235 241 172 187 209 201 167 164 164 175 201 230 263 289 302 310 323 328 329 329 327 320 309 306 307 300 294 292
253 50 119 216 250 274 218 217 226 206 172 170 175 184 197 218 258 286 304 321 323 323 323 322 321 321 320 314 308 308 304 298
250 263 223 214 248 255 255 244 228 204 183 173 177 175 186 209 248 277 295 304 313 316 317 316 318 322 319 315 313 309 309 309
292 230 170 289 283 240 216 226 236 229 187 180 170 170 175 179 198 258 295 311 315 314 313 313 311 312 308 308 308 308 305 303
231 319 354 335 287 271 268 247 253 240 218 205 183 172 170 171 196 232 284 302 306 310 310 311 310 304 298 297 296 299 304 306
44 47 233 77 283 273 279 282 254 251 213 190 176 175 171 165 184 253 295 309 311 306 308 312 314 305 303 300 301 303 304 305